TimeEDT,TemperatureF,Dew PointF,Humidity,Sea Level PressureIn,VisibilityMPH,Wind Direction,Wind SpeedMPH,Gust SpeedMPH,PrecipitationIn,Events,Conditions,WindDirDegrees,DateUTC
12:35 AM,35.6,28.4,75,29.71,10.0,WSW,12.7,23.0,N/A,,Mostly Cloudy,250,2013-03-19 04:35:00
12:53 AM,35.1,28.0,76,29.73,10.0,WSW,8.1,18.4,N/A,,Overcast,250,2013-03-19 04:53:00
1:53 AM,32.0,23.0,69,29.75,10.0,West,13.8,26.5,N/A,,Overcast,270,2013-03-19 05:53:00
2:53 AM,30.0,21.0,69,29.77,10.0,WSW,11.5,23.0,N/A,,Overcast,250,2013-03-19 06:53:00
3:53 AM,28.0,17.1,63,29.79,10.0,West,12.7,24.2,N/A,,Overcast,260,2013-03-19 07:53:00
4:53 AM,26.1,15.1,63,29.81,10.0,WSW,15.0,27.6,N/A,,Overcast,250,2013-03-19 08:53:00
5:21 AM,24.8,12.2,59,29.79,10.0,WSW,11.5,26.5,N/A,,Mostly Cloudy,250,2013-03-19 09:21:00
5:53 AM,25.0,15.1,66,29.81,10.0,WSW,13.8,20.7,N/A,,Overcast,240,2013-03-19 09:53:00
6:53 AM,24.1,14.0,65,29.85,10.0,West,11.5,25.3,N/A,,Overcast,260,2013-03-19 10:53:00
7:53 AM,25.0,17.1,72,29.84,7.0,WSW,11.5,23.0,0.00,Snow,Light Snow,240,2013-03-19 11:53:00
8:46 AM,24.8,14.0,64,29.82,10.0,WSW,15.0,24.2,0.00,,Mostly Cloudy,250,2013-03-19 12:46:00
8:53 AM,24.1,14.0,65,29.85,10.0,WSW,13.8,25.3,0.00,,Overcast,250,2013-03-19 12:53:00
9:08 AM,24.8,12.2,59,29.82,10.0,WSW,16.1,28.8,N/A,,Overcast,250,2013-03-19 13:08:00
9:53 AM,25.0,12.9,60,29.86,9.0,West,20.7,32.2,0.00,,Overcast,260,2013-03-19 13:53:00
10:53 AM,25.0,12.9,60,29.87,9.0,WSW,15.0,28.8,0.00,,Overcast,250,2013-03-19 14:53:00
11:45 AM,26.6,15.8,64,29.86,8.0,WSW,15.0,25.3,0.00,Snow,Light Snow,240,2013-03-19 15:45:00
11:53 AM,26.1,16.0,66,29.89,6.0,WSW,15.0,24.2,0.00,Snow,Light Snow,250,2013-03-19 15:53:00
12:12 PM,26.6,15.8,64,29.86,7.0,West,9.2,20.7,0.00,Snow,Light Snow,260,2013-03-19 16:12:00
12:53 PM,28.0,14.0,56,29.89,9.0,West,13.8,28.8,0.00,Snow,Light Snow,260,2013-03-19 16:53:00
1:53 PM,28.9,14.0,54,29.91,10.0,West,18.4,32.2,0.00,,Overcast,260,2013-03-19 17:53:00
2:53 PM,30.0,15.1,54,29.94,9.0,West,13.8,32.2,0.00,,Overcast,270,2013-03-19 18:53:00
3:53 PM,32.0,15.1,50,29.94,10.0,West,16.1,26.5,N/A,,Overcast,260,2013-03-19 19:53:00
4:53 PM,33.1,15.1,48,29.95,10.0,WSW,19.6,33.4,N/A,,Overcast,250,2013-03-19 20:53:00
5:53 PM,34.0,15.1,46,29.96,10.0,West,9.2,31.1,N/A,,Mostly Cloudy,270,2013-03-19 21:53:00
6:53 PM,34.0,15.1,46,29.97,10.0,West,12.7,25.3,N/A,,Clear,270,2013-03-19 22:53:00
7:53 PM,33.1,15.1,48,29.99,10.0,West,11.5,21.9,N/A,,Clear,260,2013-03-19 23:53:00
8:53 PM,32.0,15.1,50,30.01,10.0,West,8.1,16.1,N/A,,Clear,260,2013-03-20 00:53:00
9:53 PM,32.0,15.1,50,30.01,10.0,West,6.9,-,N/A,,Clear,260,2013-03-20 01:53:00
10:53 PM,32.0,15.1,50,30.02,10.0,West,10.4,17.3,N/A,,Clear,260,2013-03-20 02:53:00
11:53 PM,30.9,15.1,52,30.02,10.0,West,5.8,-,N/A,,Clear,270,2013-03-20 03:53:00